TimePDT,TemperatureF,Dew PointF,Humidity,Sea Level PressureIn,VisibilityMPH,Wind Direction,Wind SpeedMPH,Gust SpeedMPH,PrecipitationIn,Events,Conditions,WindDirDegrees,DateUTC
12:53 AM,60.1,45.0,57,30.03,10.0,WNW,10.4,-,N/A,,Clear,300,2013-04-11 07:53:00
1:53 AM,57.9,46.0,65,30.02,10.0,NW,12.7,-,N/A,,Clear,320,2013-04-11 08:53:00
2:53 AM,55.9,46.0,69,30.00,10.0,North,9.2,-,N/A,,Clear,350,2013-04-11 09:53:00
3:53 AM,52.0,46.0,80,29.99,10.0,NW,9.2,-,N/A,,Clear,320,2013-04-11 10:53:00
4:53 AM,50.0,46.0,86,29.98,10.0,North,4.6,-,N/A,,Clear,10,2013-04-11 11:53:00
5:53 AM,50.0,46.0,86,29.98,10.0,Calm,Calm,-,N/A,,Clear,0,2013-04-11 12:53:00
6:53 AM,50.0,46.0,86,29.99,10.0,NW,10.4,-,N/A,,Clear,310,2013-04-11 13:53:00
7:53 AM,52.0,46.0,80,29.97,10.0,WNW,11.5,-,N/A,,Clear,300,2013-04-11 14:53:00
8:53 AM,57.0,46.9,69,29.97,10.0,NNW,13.8,-,N/A,,Clear,330,2013-04-11 15:53:00
10:53 AM,66.0,42.1,42,29.94,10.0,NW,18.4,-,N/A,,Clear,320,2013-04-11 17:53:00
11:53 AM,70.0,41.0,35,29.92,10.0,NNW,15.0,-,N/A,,Clear,330,2013-04-11 18:53:00
12:53 PM,73.0,43.0,34,29.89,10.0,NW,5.8,-,N/A,,Clear,310,2013-04-11 19:53:00
1:53 PM,75.9,42.1,30,29.86,10.0,North,6.9,-,N/A,,Clear,350,2013-04-11 20:53:00
2:53 PM,79.0,42.1,27,29.83,10.0,North,12.7,20.7,N/A,,Clear,360,2013-04-11 21:53:00
3:30 PM,78.8,42.8,28,29.84,10.0,NNW,16.1,21.9,N/A,,Partly Cloudy,340,2013-04-11 22:30:00
3:53 PM,77.0,43.0,30,29.82,10.0,NNW,15.0,25.3,N/A,,Clear,330,2013-04-11 22:53:00
4:53 PM,77.0,43.0,30,29.79,10.0,NW,16.1,-,N/A,,Clear,310,2013-04-11 23:53:00
5:53 PM,70.0,43.0,38,29.79,10.0,NW,17.3,-,N/A,,Clear,320,2013-04-12 00:53:00
6:53 PM,69.1,43.0,39,29.79,10.0,NW,13.8,-,N/A,,Clear,320,2013-04-12 01:53:00
7:53 PM,66.0,41.0,40,29.81,10.0,NW,15.0,-,N/A,,Clear,320,2013-04-12 02:53:00
8:53 PM,61.0,41.0,48,29.83,10.0,WNW,10.4,-,N/A,,Clear,300,2013-04-12 03:53:00
9:53 PM,57.9,42.1,56,29.84,10.0,NW,13.8,-,N/A,,Clear,320,2013-04-12 04:53:00
10:53 PM,55.9,42.1,60,29.85,10.0,NW,10.4,-,N/A,,Clear,310,2013-04-12 05:53:00
11:53 PM,53.1,42.1,66,29.86,10.0,NW,6.9,-,N/A,,Clear,320,2013-04-12 06:53:00